TimeEST,TemperatureF,Dew PointF,Humidity,Sea Level PressureIn,VisibilityMPH,Wind Direction,Wind SpeedMPH,Gust SpeedMPH,PrecipitationIn,Events,Conditions,WindDirDegrees,DateUTC
12:53 AM,57.9,52.0,81,29.98,10.0,Calm,Calm,-,N/A,,Mostly Cloudy,0,2013-02-16 05:53:00
1:53 AM,55.9,51.1,84,29.96,10.0,Calm,Calm,-,N/A,,Clear,0,2013-02-16 06:53:00
2:53 AM,55.0,52.0,89,29.96,10.0,Calm,Calm,-,N/A,,Partly Cloudy,0,2013-02-16 07:53:00
3:53 AM,53.1,51.1,93,29.96,10.0,Calm,Calm,-,N/A,,Partly Cloudy,0,2013-02-16 08:53:00
4:53 AM,54.0,52.0,93,29.94,10.0,North,4.6,-,N/A,,Clear,10,2013-02-16 09:53:00
5:53 AM,52.0,50.0,93,29.95,10.0,Calm,Calm,-,N/A,,Clear,0,2013-02-16 10:53:00
7:53 AM,53.1,50.0,89,29.97,10.0,Calm,Calm,-,N/A,,Clear,0,2013-02-16 12:53:00
8:53 AM,59.0,51.1,75,29.99,10.0,Calm,Calm,-,N/A,,Clear,0,2013-02-16 13:53:00
9:53 AM,63.0,48.9,60,29.99,10.0,WNW,11.5,18.4,N/A,,Partly Cloudy,300,2013-02-16 14:53:00
10:53 AM,66.0,48.0,52,30.01,10.0,WNW,15.0,21.9,N/A,,Scattered Clouds,300,2013-02-16 15:53:00
11:53 AM,66.9,45.0,45,30.01,10.0,WNW,20.7,25.3,N/A,,Partly Cloudy,300,2013-02-16 16:53:00
12:53 PM,68.0,46.0,45,29.99,10.0,WNW,16.1,-,N/A,,Clear,300,2013-02-16 17:53:00
1:53 PM,61.0,53.1,75,29.98,9.0,NW,15.0,24.2,0.00,Rain,Light Rain,310,2013-02-16 18:53:00
2:53 PM,57.9,53.1,84,29.99,5.0,NNW,18.4,38.0,0.01,Rain,Light Rain,330,2013-02-16 19:53:00
3:53 PM,61.0,46.9,60,30.00,10.0,NNW,21.9,29.9,0.00,Rain,Light Rain,330,2013-02-16 20:53:00
4:53 PM,59.0,46.9,64,30.01,10.0,NNW,15.0,29.9,0.00,Rain,Light Rain,330,2013-02-16 21:53:00
5:53 PM,57.0,45.0,64,30.02,10.0,NNW,15.0,-,0.00,,Scattered Clouds,330,2013-02-16 22:53:00
6:53 PM,57.9,45.0,62,30.04,10.0,NW,16.1,25.3,N/A,,Mostly Cloudy,310,2013-02-16 23:53:00
7:53 PM,57.0,37.9,49,30.06,10.0,NW,21.9,26.5,N/A,,Scattered Clouds,310,2013-02-17 00:53:00
8:53 PM,57.9,37.9,47,30.08,10.0,NW,23.0,29.9,N/A,,Mostly Cloudy,320,2013-02-17 01:53:00
9:53 PM,57.9,35.1,42,30.10,10.0,NW,21.9,31.1,N/A,,Mostly Cloudy,310,2013-02-17 02:53:00
10:53 PM,57.0,39.0,51,30.11,10.0,NNW,15.0,28.8,N/A,,Mostly Cloudy,330,2013-02-17 03:53:00
11:53 PM,55.9,35.1,45,30.12,10.0,NNW,16.1,32.2,N/A,,Mostly Cloudy,330,2013-02-17 04:53:00